Belleville, IL

4:41 AM CDT on August 22, 2017 (GMT -0500)
Scott Air Force Base-Midamerica

Weather History for KBLV - November, 2012

Change the Weather History Date:

Friday, November 30, 2012

  Actual Average Record
Temperature  
Mean Temperature 50 °F -  
Max Temperature 63 °F 50 °F 70 °F (1970)
Min Temperature 37 °F 31 °F 4 °F (1976)
Degree Days  
Heating Degree Days 15    
Moisture  
Dew Point 38 °F    
Average Humidity 64    
Maximum Humidity 83    
Minimum Humidity 45    
Precipitation  
Precipitation 0.00 in - - ()
Sea Level Pressure  
Sea Level Pressure 30.12 in    
Wind  
Wind Speed 8 mph (South)    
Max Wind Speed 10 mph    
Max Gust Speed -    
Visibility 10 miles    
Events      
Averages and records for this station are not official NWS values.
T = Trace of Precipitation, MM = Missing Value Source: NWS Daily Summary

Daily Weather History Graph

Daily Weather History Graph

Search for Another Location

Airport or City:

Trip Planner

Search our weather history database for the weather conditions in past years. The results will help you decide how hot, cold, wet, or windy it might be!

Date:

Astronomy

Nov. 30, 2012 Rise Set
Actual Time 6:57 AM CST 4:38 PM CST
Civil Twilight 6:28 AM CST 5:08 PM CST
Nautical Twilight 5:55 AM CST 5:40 PM CST
Astronomical Twilight 5:23 AM CST 6:12 PM CST
Moon 6:33 PM CST (11/30) 8:29 AM CST (11/30)
Length of Visible Light 10h 39m
Length of Day
9h 41m
Waning Gibbous, 96% of the Moon is Illuminated
Nov 30
Waning Gibbous
Dec 6
Last Quarter
Dec 13
New
Dec 19
First Quarter
Dec 28
Full

Hourly Weather History & Observations

Time (CST) Temp. Windchill Dew Point Humidity Pressure Visibility Wind Dir Wind Speed Gust Speed Precip Events Conditions
12:55 AM 43.9 °F 38.8 °F 32.4 °F 64% 30.14 in 10.0 mi South 9.2 mph - N/A   Clear
1:55 AM 42.1 °F 37.1 °F 31.5 °F 66% 30.14 in 10.0 mi SSW 8.1 mph - N/A   Clear
2:55 AM 42.8 °F 38.6 °F 31.3 °F 64% 30.15 in 10.0 mi South 6.9 mph - N/A   Clear
3:55 AM 42.8 °F 38.6 °F 30.9 °F 63% 30.14 in 10.0 mi SSW 6.9 mph - N/A   Clear
4:55 AM 39.7 °F 34.3 °F 30.7 °F 70% 30.13 in 10.0 mi South 8.1 mph - N/A   Clear
5:55 AM 39.0 °F 34.0 °F 31.3 °F 74% 30.13 in 10.0 mi South 6.9 mph - N/A   Partly Cloudy
6:55 AM 37.8 °F 33.3 °F 30.9 °F 76% 30.14 in 10.0 mi South 5.8 mph - N/A   Clear
7:55 AM 39.4 °F 34.5 °F 32.4 °F 76% 30.14 in 10.0 mi South 6.9 mph - N/A   Clear
8:55 AM 47.3 °F - 34.9 °F 62% 30.15 in 10.0 mi South 6.9 mph - N/A   Clear
9:55 AM 52.0 °F - 35.1 °F 53% 30.15 in 10.0 mi South 9.2 mph - N/A   Clear
10:55 AM 55.9 °F - 37.6 °F 50% 30.14 in 10.0 mi SSW 8.1 mph - N/A   Clear
11:55 AM 60.1 °F - 39.7 °F 47% 30.11 in 10.0 mi SW 10.4 mph - N/A   Clear
12:55 PM 62.6 °F - 41.5 °F 46% 30.09 in 10.0 mi SW 6.9 mph - N/A   Clear
1:55 PM 63.9 °F - 42.3 °F 45% 30.07 in 10.0 mi South 10.4 mph - N/A   Clear
2:55 PM 63.7 °F - 42.1 °F 45% 30.07 in 10.0 mi South 10.4 mph - N/A   Clear
3:55 PM 61.0 °F - 43.2 °F 52% 30.08 in 10.0 mi South 9.2 mph - N/A   Clear
4:55 PM 54.3 °F - 41.0 °F 61% 30.09 in 10.0 mi South 6.9 mph - N/A   Clear
5:55 PM 52.3 °F - 40.5 °F 64% 30.11 in 10.0 mi South 5.8 mph - N/A   Clear
6:55 PM 51.3 °F - 41.2 °F 68% 30.12 in 10.0 mi South 4.6 mph - N/A   Clear
7:55 PM 49.3 °F - 41.4 °F 74% 30.12 in 10.0 mi South 4.6 mph - N/A   Clear
8:55 PM 48.6 °F - 41.9 °F 78% 30.11 in 10.0 mi South 5.8 mph - N/A   Clear
9:55 PM 49.3 °F - 42.3 °F 77% 30.12 in 10.0 mi South 4.6 mph - N/A   Clear
10:55 PM 47.7 °F - 42.6 °F 83% 30.12 in 10.0 mi South 6.9 mph - N/A   Clear
11:55 PM 48.4 °F - 43.5 °F 83% 30.12 in 10.0 mi South 5.8 mph - N/A   Clear